This is the latest recevied weather packets stored in our database for station/object N8AMF. If no packets are shown the sender has not sent any weather packets the latest 10 day(s).
| Time | Temp. | Humidity | Pressure | Rain* | Wind** | Luminosity | Snow |
|---|---|---|---|---|---|---|---|
| 1778088051 | 11.11° C | 75% | 1011.6 hPa | 0 mm | - | 519 W/m² | - |
| 1778087749 | 11.11° C | 75% | 1011.7 hPa | 0 mm | - | 490 W/m² | - |
| 1778087447 | 11.67° C | 74% | 1011.8 hPa | 0 mm | - | 587 W/m² | - |
| 1778087144 | 11.67° C | 75% | 1011.7 hPa | 0 mm | - | 655 W/m² | - |
| 1778086836 | 11.67° C | 74% | 1011.9 hPa | 0 mm | - | 663 W/m² | - |
| 1778086534 | 11.67° C | 74% | 1012.1 hPa | 0 mm | - | 580 W/m² | - |
| 1778086229 | 11.67° C | 74% | 1011.8 hPa | 0 mm | - | 638 W/m² | - |
| 1778085927 | 11.67° C | 73% | 1012 hPa | 0 mm | - | 1104 W/m² | - |
| 1778085624 | 11.11° C | 77% | 1011.7 hPa | 0 mm | - | 1029 W/m² | - |
| 1778085320 | 11.67° C | 72% | 1011.7 hPa | 0 mm | - | 575 W/m² | - |
| 1778085016 | 11.67° C | 73% | 1011.7 hPa | 0 mm | - | 986 W/m² | - |
| 1778084712 | 11.67° C | 72% | 1011.6 hPa | 0 mm | - | 929 W/m² | - |
| 1778084409 | 12.22° C | 73% | 1011.3 hPa | 0 mm | - | 901 W/m² | - |
| 1778084107 | 11.11° C | 73% | 1011.4 hPa | 0 mm | - | 900 W/m² | - |
| 1778083804 | 11.67° C | 73% | 1011.4 hPa | 0 mm | - | 892 W/m² | - |
| 1778083501 | 11.11° C | 74% | 1011.5 hPa | 0 mm | - | 881 W/m² | - |
| 1778083198 | 11.11° C | 73% | 1011.2 hPa | 0 mm | - | 882 W/m² | - |
| 1778082896 | 11.11° C | 73% | 1011.3 hPa | 0 mm | - | 895 W/m² | - |
| 1778081783 | 11.67° C | 74% | 1011.3 hPa | 0 mm | - | 859 W/m² | - |
| 1778081480 | 11.11° C | 77% | 1011 hPa | 0 mm | - | 854 W/m² | - |
| 1778081177 | 11.11° C | 79% | 1011.2 hPa | 0 mm | - | 851 W/m² | - |
| 1778080875 | 11.67° C | 79% | 1010.8 hPa | 0 mm | - | 821 W/m² | - |
| 1778080573 | 10.56° C | 80% | 1010.8 hPa | 0 mm | - | 771 W/m² | - |
| 1778080269 | 10.56° C | 82% | 1010.5 hPa | 0 mm | - | 846 W/m² | - |
| 1778079966 | 10.56° C | 82% | 1010.5 hPa | 0 mm | - | 722 W/m² | - |
* Rain latest hour (hover to see other rain measurements)
** Current wind speed in m/s (hover to see current wind gust speed)